| time (UTC) | temp F | wind direction | speed knots | gust knots | rain 1hr in | rain 24hr in | rain mn in | humidity % | barometer mb |
| 20260510130237 | 53 | 52 | 14.8 | 19.1 | 0.00 | 0.00 | 0.00 | 70 | 1016.2 |
| 20260510125250 | 53 | 58 | 12.2 | 19.1 | 0.00 | 0.00 | 0.00 | 68 | 1016.3 |
| 20260510124223 | 53 | 26 | 12.2 | 20.0 | 0.00 | 0.00 | 0.00 | 70 | 1016.5 |
| 20260510123235 | 53 | 34 | 13.9 | 20.0 | 0.00 | 0.00 | 0.00 | 70 | 1016.6 |
| 20260510121108 | 52 | 69 | 14.8 | 20.9 | 0.00 | 0.00 | 0.00 | 73 | 1016.8 |
| 20260510120046 | 53 | 40 | 14.8 | 20.9 | 0.00 | 0.00 | 0.00 | 73 | 1016.8 |
| 20260510115050 | 53 | 53 | 15.6 | 20.9 | 0.00 | 0.00 | 0.00 | 73 | 1016.9 |
| 20260510114101 | 53 | 61 | 13.0 | 18.2 | 0.00 | 0.00 | 0.00 | 73 | 1016.9 |
| 20260510113045 | 52 | 46 | 12.2 | 17.4 | 0.00 | 0.00 | 0.00 | 74 | 1017.0 |
| 20260510112047 | 52 | 59 | 11.3 | 17.4 | 0.00 | 0.00 | 0.00 | 75 | 1017.1 |
| 20260510111049 | 52 | 44 | 13.0 | 20.9 | 0.00 | 0.00 | 0.00 | 77 | 1017.1 |
| 20260510110036 | 52 | 56 | 15.6 | 22.6 | 0.00 | 0.00 | 0.00 | 77 | 1017.2 |
| 20260510105042 | 52 | 41 | 15.6 | 22.6 | 0.00 | 0.00 | 0.00 | 76 | 1017.1 |
| 20260510104029 | 52 | 36 | 14.8 | 19.1 | 0.00 | 0.00 | 0.00 | 76 | 1017.1 |
| 20260510103019 | 52 | 37 | 13.9 | 19.1 | 0.00 | 0.00 | 0.00 | 77 | 1017.1 |
| 20260510101951 | 52 | 41 | 12.2 | 18.2 | 0.00 | 0.00 | 0.00 | 78 | 1017.3 |
| 20260510100959 | 52 | 34 | 13.0 | 20.9 | 0.00 | 0.00 | 0.00 | 77 | 1017.3 |
| 20260510095947 | 53 | 34 | 13.9 | 20.9 | 0.00 | 0.00 | 0.00 | 77 | 1017.3 |
| 20260510094942 | 53 | 28 | 11.3 | 16.5 | 0.00 | 0.00 | 0.00 | 75 | 1017.5 |
| 20260510093917 | 53 | 57 | 13.0 | 19.1 | 0.00 | 0.00 | 0.00 | 77 | 1017.4 |
| 20260510092938 | 53 | 56 | 13.9 | 19.1 | 0.00 | 0.00 | 0.00 | 76 | 1017.5 |
| 20260510090857 | 52 | 53 | 13.0 | 19.1 | 0.00 | 0.00 | 0.00 | 78 | 1017.7 |
| 20260510085909 | 52 | 30 | 13.0 | 17.4 | 0.00 | 0.00 | 0.00 | 79 | 1017.7 |
| 20260510084844 | 52 | 34 | 13.9 | 19.1 | 0.00 | 0.00 | 0.00 | 79 | 1017.7 |
| 20260510083831 | 53 | 63 | 12.2 | 20.0 | 0.00 | 0.00 | 0.00 | 78 | 1017.7 |
| 20260510082820 | 53 | 22 | 13.9 | 20.0 | 0.00 | 0.00 | 0.00 | 78 | 1017.7 |
| 20260510080711 | 53 | 40 | 11.3 | 18.2 | 0.00 | 0.00 | 0.00 | 80 | 1017.6 |
| 20260510075720 | 53 | 42 | 12.2 | 16.5 | 0.00 | 0.00 | 0.00 | 79 | 1017.6 |
| 20260510073552 | 52 | 61 | 13.0 | 18.2 | 0.00 | 0.00 | 0.00 | 82 | 1017.6 |
| 20260510072616 | 52 | 55 | 13.0 | 18.2 | 0.00 | 0.00 | 0.00 | 82 | 1017.6 |
| 20260510071546 | 52 | 55 | 11.3 | 17.4 | 0.00 | 0.00 | 0.00 | 83 | 1017.7 |
| 20260510070610 | 52 | 49 | 9.6 | 17.4 | 0.00 | 0.00 | 0.00 | 84 | 1017.8 |
| 20260510064445 | 51 | 38 | 10.4 | 14.8 | 0.00 | 0.00 | 0.00 | 85 | 1017.7 |
| 20260510063508 | 51 | 34 | 11.3 | 17.4 | 0.00 | 0.00 | 0.00 | 86 | 1017.6 |
| 20260510062523 | 51 | 38 | 11.3 | 17.4 | 0.00 | 0.00 | 0.00 | 86 | 1017.5 |
| 20260510061514 | 51 | 49 | 11.3 | 15.6 | 0.00 | 0.00 | 0.00 | 86 | 1017.4 |
| 20260510060457 | 51 | 57 | 10.4 | 15.6 | 0.00 | 0.00 | 0.00 | 86 | 1017.2 |
| 20260510055433 | 50 | 18 | 9.6 | 14.8 | 0.00 | 0.00 | 0.00 | 86 | 1017.2 |
| 20260510053321 | 50 | 26 | 8.7 | 14.8 | 0.00 | 0.00 | 0.00 | 87 | 1017.2 |
| 20260510050032 | 50 | 19 | 9.6 | 14.8 | 0.00 | 0.00 | 0.00 | 87 | 1017.1 |
| 20260510045026 | 50 | 42 | 9.6 | 13.9 | 0.00 | 0.00 | 0.00 | 88 | 1017.2 |
| 20260510044027 | 50 | 39 | 9.6 | 13.9 | 0.00 | 0.00 | 0.00 | 88 | 1017.3 |
| 20260510042956 | 50 | 30 | 8.7 | 13.0 | 0.00 | 0.00 | 0.00 | 88 | 1017.4 |
| 20260510041952 | 50 | 22 | 8.7 | 12.2 | 0.00 | 0.00 | 0.00 | 88 | 1017.4 |
| 20260510040926 | 49 | 34 | 8.7 | 13.0 | 0.00 | 0.00 | 0.00 | 88 | 1017.4 |
| 20260510035914 | 49 | 31 | 8.7 | 13.0 | 0.00 | 0.00 | 0.00 | 89 | 1017.6 |
| 20260510034937 | 49 | 34 | 7.8 | 13.0 | 0.00 | 0.00 | 0.00 | 90 | 1017.7 |
| 20260510031610 | 49 | 31 | 8.7 | 13.9 | 0.00 | 0.00 | 0.00 | 90 | 1017.6 |
| 20260510030547 | 49 | 44 | 8.7 | 13.0 | 0.00 | 0.00 | 0.00 | 90 | 1017.6 |
| 20260510025551 | 49 | 25 | 7.8 | 13.0 | 0.00 | 0.00 | 0.00 | 90 | 1017.6 |
| 20260510024541 | 49 | 34 | 6.1 | 10.4 | 0.00 | 0.00 | 0.00 | 90 | 1017.6 |
| 20260510023531 | 49 | 20 | 7.8 | 13.0 | 0.00 | 0.00 | 0.00 | 90 | 1017.7 |
| 20260510022505 | 49 | 27 | 7.8 | 13.0 | 0.00 | 0.00 | 0.00 | 91 | 1017.8 |
| 20260510020403 | 49 | 24 | 7.0 | 11.3 | 0.00 | 0.00 | 0.00 | 91 | 1018.0 |
| 20260510015405 | 49 | 41 | 7.0 | 11.3 | 0.00 | 0.00 | 0.00 | 91 | 1018.0 |
| 20260510014331 | 49 | 16 | 4.3 | 9.6 | 0.00 | 0.00 | 0.00 | 91 | 1018.0 |
| 20260510013320 | 49 | 27 | 5.2 | 9.6 | 0.00 | 0.00 | 0.00 | 91 | 1017.8 |
| 20260510012315 | 49 | 18 | 5.2 | 8.7 | 0.00 | 0.00 | 0.00 | 91 | 1017.6 |
| 20260510011325 | 49 | 25 | 5.2 | 8.7 | 0.00 | 0.00 | 0.00 | 91 | 1017.6 |
| 20260510010308 | 49 | 20 | 5.2 | 9.6 | 0.00 | 0.00 | 0.00 | 91 | 1017.7 |
| 20260510005248 | 49 | 25 | 5.2 | 9.6 | 0.00 | 0.00 | 0.00 | 90 | 1017.8 |
| 20260510004226 | 49 | 5 | 5.2 | 9.6 | 0.00 | 0.00 | 0.00 | 90 | 1017.9 |
| 20260510003200 | 50 | 17 | 5.2 | 9.6 | 0.00 | 0.00 | 0.00 | 90 | 1017.9 |
| 20260510002153 | 50 | 42 | 4.3 | 8.7 | 0.00 | 0.00 | 0.00 | 90 | 1018.1 |
| 20260510001152 | 50 | 38 | 6.1 | 8.7 | 0.00 | 0.00 | 0.00 | 89 | 1018.1 |
| 20260510000133 | 50 | 29 | 4.3 | 8.7 | 0.00 | 0.00 | 0.00 | 89 | 1017.9 |
| 20260509235117 | 50 | 18 | 5.2 | 8.7 | 0.00 | 0.00 | 0.00 | 89 | 1018.1 |
| 20260509234058 | 50 | 44 | 4.3 | 8.7 | 0.00 | 0.00 | 0.00 | 89 | 1018.0 |
| 20260509233111 | 50 | 34 | 5.2 | 8.7 | 0.00 | 0.00 | 0.00 | 88 | 1018.1 |
| 20260509232117 | 51 | 38 | 5.2 | 7.8 | 0.00 | 0.00 | 0.00 | 88 | 1018.0 |
| 20260509231108 | 51 | 30 | 5.2 | 8.7 | 0.00 | 0.00 | 0.00 | 88 | 1018.0 |
| 20260509230120 | 51 | 31 | 7.0 | 9.6 | 0.00 | 0.00 | 0.00 | 87 | 1018.0 |
| 20260509225114 | 51 | 32 | 5.2 | 9.6 | 0.00 | 0.00 | 0.00 | 86 | 1018.2 |
| 20260509224116 | 51 | 35 | 6.1 | 11.3 | 0.00 | 0.00 | 0.00 | 85 | 1018.1 |
| 20260509223053 | 52 | 47 | 7.0 | 11.3 | 0.00 | 0.00 | 0.00 | 84 | 1018.0 |
| 20260509222048 | 52 | 42 | 5.2 | 8.7 | 0.00 | 0.00 | 0.00 | 84 | 1017.9 |
| 20260509221016 | 52 | 53 | 5.2 | 8.7 | 0.00 | 0.00 | 0.00 | 84 | 1018.1 |
| 20260509220016 | 52 | 51 | 5.2 | 8.7 | 0.00 | 0.00 | 0.00 | 83 | 1018.0 |
| 20260509215027 | 52 | 44 | 5.2 | 7.8 | 0.00 | 0.00 | 0.00 | 82 | 1017.9 |
| 20260509212829 | 54 | 54 | 4.3 | 7.0 | 0.00 | 0.00 | 0.00 | 81 | 1018.0 |
| 20260509211855 | 54 | 63 | 3.5 | 5.2 | 0.00 | 0.00 | 0.00 | 80 | 1018.0 |
| 20260509205751 | 54 | 48 | 3.5 | 7.0 | 0.00 | 0.00 | 0.00 | 80 | 1017.9 |
| 20260509204731 | 55 | 65 | 6.1 | 8.7 | 0.00 | 0.00 | 0.00 | 79 | 1017.8 |
| 20260509203730 | 55 | 74 | 7.0 | 9.6 | 0.00 | 0.00 | 0.00 | 77 | 1017.7 |
| 20260509202701 | 55 | 82 | 6.1 | 9.6 | 0.00 | 0.00 | 0.00 | 75 | 1017.6 |
| 20260509201704 | 56 | 77 | 5.2 | 8.7 | 0.00 | 0.00 | 0.00 | 73 | 1017.5 |
| 20260509200709 | 57 | 67 | 6.1 | 8.7 | 0.00 | 0.00 | 0.00 | 70 | 1017.4 |
| 20260509195650 | 57 | 79 | 6.1 | 8.7 | 0.00 | 0.00 | 0.00 | 68 | 1017.6 |
| 20260509194658 | 57 | 84 | 7.0 | 8.7 | 0.00 | 0.00 | 0.00 | 67 | 1017.5 |
| 20260509193625 | 58 | 78 | 7.8 | 9.6 | 0.00 | 0.00 | 0.00 | 63 | 1017.4 |
| 20260509191527 | 59 | 82 | 9.6 | 11.3 | 0.00 | 0.00 | 0.00 | 60 | 1017.1 |
| 20260509190508 | 59 | 74 | 9.6 | 11.3 | 0.00 | 0.00 | 0.00 | 60 | 1017.3 |
| 20260509185451 | 60 | 91 | 8.7 | 12.2 | 0.00 | 0.00 | 0.00 | 61 | 1017.3 |
| 20260509183330 | 61 | 84 | 8.7 | 10.4 | 0.00 | 0.00 | 0.00 | 55 | 1017.0 |
| 20260509182309 | 61 | 84 | 8.7 | 13.9 | 0.00 | 0.00 | 0.00 | 54 | 1016.9 |
| 20260509181251 | 61 | 85 | 9.6 | 13.9 | 0.00 | 0.00 | 0.00 | 53 | 1016.7 |
| 20260509180313 | 60 | 103 | 8.7 | 13.0 | 0.00 | 0.00 | 0.00 | 70 | 1016.7 |
| 20260509175249 | 60 | 97 | 9.6 | 13.0 | 0.00 | 0.00 | 0.00 | 69 | 1016.8 |
| 20260509173111 | 60 | 98 | 8.7 | 11.3 | 0.00 | 0.00 | 0.00 | 62 | 1017.0 |
| 20260509171007 | 60 | 111 | 10.4 | 13.9 | 0.00 | 0.00 | 0.00 | 57 | 1017.1 |
| 20260509170012 | 60 | 108 | 10.4 | 13.9 | 0.00 | 0.00 | 0.00 | 58 | 1017.0 |
| 20260509163849 | 60 | 113 | 10.4 | 16.5 | 0.00 | 0.00 | 0.00 | 59 | 1017.3 |
| 20260509162855 | 60 | 103 | 10.4 | 13.0 | 0.00 | 0.00 | 0.00 | 52 | 1017.3 |
| 20260509161825 | 61 | 115 | 9.6 | 13.0 | 0.00 | 0.00 | 0.00 | 52 | 1017.4 |
| 20260509160829 | 61 | 105 | 9.6 | 13.9 | 0.00 | 0.00 | 0.00 | 54 | 1017.4 |
| 20260509155842 | 61 | 119 | 9.6 | 13.9 | 0.00 | 0.00 | 0.00 | 56 | 1017.3 |
| 20260509153746 | 62 | 113 | 9.6 | 13.9 | 0.00 | 0.00 | 0.00 | 53 | 1017.0 |
| 20260509151636 | 61 | 104 | 9.6 | 16.5 | 0.00 | 0.00 | 0.00 | 58 | 1016.9 |
| 20260509145447 | 61 | 111 | 12.2 | 16.5 | 0.00 | 0.00 | 0.00 | 61 | 1016.6 |
| 20260509144442 | 61 | 93 | 11.3 | 16.5 | 0.00 | 0.00 | 0.00 | 61 | 1016.8 |
| 20260509143412 | 61 | 128 | 11.3 | 16.5 | 0.00 | 0.00 | 0.00 | 55 | 1016.9 |
| 20260509142336 | 61 | 115 | 13.0 | 16.5 | 0.00 | 0.00 | 0.00 | 54 | 1016.9 |
| 20260509141335 | 61 | 94 | 12.2 | 18.2 | 0.00 | 0.00 | 0.00 | 54 | 1017.0 |
| 20260509140340 | 61 | 109 | 13.0 | 18.2 | 0.00 | 0.00 | 0.00 | 52 | 1017.0 |
| 20260509135330 | 61 | 113 | 13.0 | 18.2 | 0.00 | 0.00 | 0.00 | 54 | 1017.1 |
| 20260509134345 | 61 | 108 | 12.2 | 18.2 | 0.00 | 0.00 | 0.00 | 57 | 1017.2 |
| 20260509133336 | 61 | 108 | 11.3 | 14.8 | 0.00 | 0.00 | 0.00 | 55 | 1017.4 |
| 20260509132306 | 61 | 121 | 10.4 | 14.8 | 0.00 | 0.00 | 0.00 | 55 | 1017.6 |